Location: Arborea
(39.7744°N, 8.5819°E)
Time: 08:13:48
(UTC+00:00)

Cosmos 2100 Rocket - Pass Details

Date: 24 October 2021
Orbit: 955 x 1001 km, 82.9° (Epoch: 02 December)

Event Time Altitude Azimuth Distance (km) Brightness Sun altitude
Rises 18:16:10 0° 170° (S) 3,673 6.9 -20.4°
Reaches altitude 10° 18:18:43 10° 165° (SSE) 2,735 6.2 -20.8°
Maximum altitude 18:24:46 52° 91° (E) 1,222 4.1 -22.0°
Drops below altitude 10° 18:30:54 10° 17° (NNE) 2,775 6.2 -23.2°
Sets 18:33:30 0° 13° (NNE) 3,731 7.0 -23.7°
